MILESOVKA Weather Reports


time (UTC)temp
C
wind
direction
speed
KPH
gust
KPH
rain 1hr
cm
rain 24hr
cm
rain mn
cm
humidity
%
barometer
mb
20260507071745 8 270 11.3 0.0 0.00 0.00 0.00 99
20260507061745 8 310 8.0 0.0 0.00 0.00 0.00 99
20260507051744 8 240 19.3 0.0 0.00 0.00 0.00 99
20260507041947 8 0 0.0 0.0 0.00 0.00 0.00 99
20260507031744 8 250 8.0 0.0 0.00 0.00 0.00 99
20260507021743 8 230 11.3 0.0 0.00 0.00 0.00 99
20260507011845 8 350 14.5 0.0 0.00 0.00 0.00 99
20260507001745 10 250 22.5 0.0 0.00 0.00 0.00 99
20260506231745 10 250 14.5 0.0 0.00 0.00 0.00 99
20260506221945 10 240 25.7 0.0 0.00 0.00 0.00 99
20260506211744 11 100 11.3 0.0 0.00 0.00 0.00 99
20260506201802 12 60 19.3 0.0 0.00 0.00 0.00 87
20260506191833 12 70 11.3 0.0 0.00 0.00 0.00 87
20260506181822 13 320 19.3 0.0 0.00 0.00 0.00 71
20260506171744 16 240 8.0 0.0 0.00 0.00 0.00 63
20260506161945 16 250 8.0 0.0 0.00 0.00 0.00 63
20260506151801 17 210 19.3 0.0 0.00 0.00 0.00 55
20260506141801 17 220 19.3 0.0 0.00 0.00 0.00 55
20260506131802 18 220 19.3 0.0 0.00 0.00 0.00 59
20260506121801 17 240 19.3 0.0 0.00 0.00 0.00 67
20260506111745 15 210 29.0 0.0 0.00 0.00 0.00 77
20260506101946 15 230 22.5 0.0 0.00 0.00 0.00 82
20260506091746 12 240 25.7 41.8 0.00 0.00 0.00 87
20260506081744 11 250 25.7 41.8 0.00 0.00 0.00 99